Torna al catalogo

HIMAWARI 8

AttivoMeteoGEO
NORAD 40267·PAYLOAD·🇯🇵 Japan

Lanciato Oct 7, 2014 da Tanegashima Space Center

Loading…

TLE

AggiornatoSource: Space-Track

Epoca: Sep 14, 2026, 12:45 UTC

1 40267U 14060A   26257.53171539 -.00000284  00000-0  00000-0 0  9991
2 40267   0.0386 315.1853 0001234 248.1496 122.2703  1.00269769 43653

Traccia HIMAWARI 8 in tempo reale con AllMySat

Download on the App Store